• In Hungary
  • List of Countries
  • For 7 days
  • Water Temperature
  • Satellite Maps
  • Weather Map
  • News
  • Weather Widgets
  • user-avatar
    Login

    Hourly Weather Wien

    Today, 22 September, Friday

    Time Temperature Precipitation Wind Pressure Humidity
    00:00 +11°C° 0.1 mm 4 mps 745 mmHg 83%
    01:00 +10°C° 0 mm 5 mps 745 mmHg 83%
    02:00 +11°C° 0.1 mm 4 mps 745 mmHg 84%
    03:00 +11°C° 0.1 mm 4 mps 745 mmHg 85%
    04:00 +10°C° 0.1 mm 4 mps 745 mmHg 86%
    05:00 +11°C° 0 mm 4 mps 745 mmHg 85%
    06:00 +11°C° 0 mm 4 mps 745 mmHg 84%
    07:00 +11°C° 0 mm 4 mps 746 mmHg 83%
    08:00 +12°C° 0 mm 4 mps 746 mmHg 77%
    09:00 +14°C° 0 mm 4 mps 746 mmHg 71%
    10:00 +15°C° 0 mm 4 mps 746 mmHg 66%
    11:00 +17°C° 0 mm 4 mps 746 mmHg 62%
    12:00 +18°C° 0 mm 3 mps 746 mmHg 59%
    13:00 +18°C° 0 mm 3 mps 746 mmHg 56%
    14:00 +18°C° 0 mm 3 mps 746 mmHg 58%
    15:00 +18°C° 0 mm 3 mps 746 mmHg 59%
    16:00 +18°C° 0 mm 3 mps 746 mmHg 61%
    17:00 +17°C° 0 mm 3 mps 746 mmHg 67%
    18:00 +15°C° 0 mm 2 mps 746 mmHg 72%
    19:00 +14°C° 0 mm 2 mps 746 mmHg 78%
    20:00 +14°C° 0 mm 2 mps 746 mmHg 80%
    21:00 +13°C° 0 mm 2 mps 747 mmHg 83%
    22:00 +12°C° 0 mm 2 mps 747 mmHg 86%
    23:00 +12°C° 0 mm 2 mps 747 mmHg 87%

    Tomorrow, 23 September, Saturday

    Time Temperature Precipitation Wind Pressure Humidity
    00:00 +10°C° 0 mm 2 mps 747 mmHg 88%
    01:00 +10°C° 0 mm 2 mps 747 mmHg 89%
    02:00 +10°C° 0 mm 2 mps 747 mmHg 89%
    03:00 +10°C° 0 mm 2 mps 747 mmHg 90%
    04:00 +9°C° 0 mm 2 mps 747 mmHg 90%
    05:00 +10°C° 0 mm 2 mps 747 mmHg 88%
    06:00 +10°C° 0 mm 3 mps 747 mmHg 87%
    07:00 +11°C° 0 mm 3 mps 747 mmHg 85%
    08:00 +13°C° 0 mm 4 mps 747 mmHg 78%
    09:00 +14°C° 0 mm 4 mps 747 mmHg 70%
    10:00 +16°C° 0 mm 5 mps 747 mmHg 63%
    11:00 +17°C° 0 mm 5 mps 746 mmHg 60%
    12:00 +17°C° 0 mm 5 mps 746 mmHg 57%
    13:00 +19°C° 0 mm 5 mps 745 mmHg 55%
    14:00 +18°C° 0.1 mm 4 mps 745 mmHg 60%
    15:00 +17°C° 0.1 mm 4 mps 745 mmHg 65%
    16:00 +16°C° 0.1 mm 3 mps 745 mmHg 70%
    17:00 +16°C° 0.1 mm 3 mps 745 mmHg 74%
    18:00 +14°C° 0.1 mm 3 mps 745 mmHg 77%
    19:00 +13°C° 0.1 mm 3 mps 745 mmHg 80%
    20:00 +12°C° 0.1 mm 3 mps 745 mmHg 81%
    21:00 +12°C° 0.1 mm 3 mps 745 mmHg 82%
    22:00 +12°C° 0.1 mm 3 mps 745 mmHg 83%
    23:00 +12°C° 0.2 mm 3 mps 745 mmHg 84%

    Day after tomorrow, 24 September, Sunday

    Time Temperature Precipitation Wind Pressure Humidity
    00:00 +11°C° 0.2 mm 3 mps 745 mmHg 84%
    01:00 +11°C° 0.2 mm 3 mps 745 mmHg 84%
    02:00 +12°C° 0.3 mm 2 mps 745 mmHg 85%
    03:00 +12°C° 0.3 mm 2 mps 744 mmHg 85%
    04:00 +12°C° 0.3 mm 2 mps 744 mmHg 86%
    05:00 +12°C° 0.3 mm 2 mps 744 mmHg 86%
    06:00 +13°C° 0.3 mm 2 mps 745 mmHg 86%
    07:00 +13°C° 0.3 mm 2 mps 745 mmHg 86%
    08:00 +13°C° 0.2 mm 2 mps 745 mmHg 83%
    09:00 +14°C° 0.2 mm 2 mps 745 mmHg 80%
    10:00 +15°C° 0.2 mm 2 mps 745 mmHg 76%
    11:00 +16°C° 0.1 mm 2 mps 745 mmHg 73%
    12:00 +17°C° 0.1 mm 2 mps 745 mmHg 69%
    13:00 +18°C° 0.1 mm 2 mps 745 mmHg 65%
    14:00 +17°C° 0.1 mm 2 mps 745 mmHg 67%
    15:00 +17°C° 0.1 mm 2 mps 745 mmHg 68%
    16:00 +18°C° 0.1 mm 1 mps 745 mmHg 69%
    17:00 +16°C° 0.1 mm 1 mps 745 mmHg 74%
    18:00 +15°C° 0.1 mm 1 mps 745 mmHg 79%
    19:00 +14°C° 0.1 mm 1 mps 746 mmHg 84%
    20:00 +14°C° 0.2 mm 1 mps 746 mmHg 86%
    21:00 +14°C° 0.2 mm 1 mps 746 mmHg 88%
    22:00 +13°C° 0.2 mm 1 mps 746 mmHg 90%
    23:00 +13°C° 0.9 mm 1 mps 746 mmHg 92%

    25 September, Monday

    Time Temperature Precipitation Wind Pressure Humidity
    00:00 +13°C° 0.9 mm 1 mps 746 mmHg 93%
    01:00 +13°C° 0.9 mm 1 mps 746 mmHg 94%
    02:00 +13°C° 1.8 mm 1 mps 746 mmHg 95%
    03:00 +13°C° 1.8 mm 1 mps 746 mmHg 95%
    04:00 +13°C° 1.8 mm 1 mps 746 mmHg 95%
    05:00 +12°C° 2.1 mm 1 mps 746 mmHg 95%
    06:00 +12°C° 2.1 mm 1 mps 747 mmHg 95%
    07:00 +12°C° 2.1 mm 1 mps 747 mmHg 95%
    08:00 +13°C° 1 mm 1 mps 747 mmHg 94%
    09:00 +13°C° 1 mm 1 mps 747 mmHg 93%
    10:00 +13°C° 1 mm 1 mps 747 mmHg 92%
    11:00 +14°C° 0.1 mm 2 mps 747 mmHg 87%
    12:00 +15°C° 0.1 mm 2 mps 747 mmHg 82%
    13:00 +16°C° 0.1 mm 2 mps 747 mmHg 78%
    14:00 +17°C° 0 mm 2 mps 747 mmHg 77%
    15:00 +18°C° 0 mm 1 mps 747 mmHg 76%
    16:00 +18°C° 0 mm 1 mps 746 mmHg 76%
    17:00 +16°C° 0.3 mm 1 mps 747 mmHg 80%
    18:00 +15°C° 0.3 mm 1 mps 747 mmHg 84%
    19:00 +14°C° 0.3 mm 1 mps 747 mmHg 88%
    20:00 +14°C° 0.3 mm 1 mps 747 mmHg 89%
    21:00 +14°C° 0.3 mm 1 mps 747 mmHg 89%
    22:00 +14°C° 0.3 mm 1 mps 747 mmHg 90%
    23:00 +14°C° 0.1 mm 1 mps 747 mmHg 90%

    26 September, Tuesday

    Time Temperature Precipitation Wind Pressure Humidity
    00:00 +13°C° 0.1 mm 1 mps 747 mmHg 90%
    01:00 +13°C° 0.1 mm 1 mps 747 mmHg 90%
    02:00 +13°C° 0 mm 1 mps 747 mmHg 90%
    03:00 +13°C° 0 mm 1 mps 747 mmHg 90%
    04:00 +12°C° 0 mm 1 mps 747 mmHg 90%
    05:00 +13°C° 0 mm 1 mps 747 mmHg 89%
    06:00 +13°C° 0 mm 1 mps 747 mmHg 87%
    07:00 +13°C° 0 mm 1 mps 747 mmHg 86%
    08:00 +14°C° 0.2 mm 1 mps 747 mmHg 84%
    09:00 +15°C° 0.2 mm 1 mps 747 mmHg 81%
    10:00 +16°C° 0.2 mm 1 mps 747 mmHg 78%
    11:00 +18°C° 0 mm 1 mps 747 mmHg 74%
    12:00 +19°C° 0 mm 2 mps 747 mmHg 70%
    13:00 +20°C° 0 mm 2 mps 747 mmHg 65%
    14:00 +20°C° 0 mm 2 mps 747 mmHg 65%
    15:00 +21°C° 0 mm 2 mps 747 mmHg 64%
    16:00 +21°C° 0 mm 2 mps 747 mmHg 64%
    17:00 +19°C° 0.1 mm 2 mps 747 mmHg 69%
    18:00 +19°C° 0.1 mm 1 mps 747 mmHg 75%
    19:00 +16°C° 0.1 mm 1 mps 747 mmHg 80%
    20:00 +16°C° 0.2 mm 1 mps 747 mmHg 82%
    21:00 +15°C° 0.2 mm 1 mps 747 mmHg 83%
    22:00 +15°C° 0.2 mm 1 mps 748 mmHg 84%
    23:00 +15°C° 0.1 mm 1 mps 748 mmHg 85%

    27 September, Wednesday

    Time Temperature Precipitation Wind Pressure Humidity
    00:00 +14°C° 0.1 mm 1 mps 748 mmHg 86%
    01:00 +14°C° 0.1 mm 1 mps 748 mmHg 87%
    02:00 +14°C° 0 mm 1 mps 748 mmHg 87%
    03:00 +13°C° 0 mm 1 mps 748 mmHg 87%
    04:00 +13°C° 0 mm 1 mps 748 mmHg 88%
    05:00 +13°C° 0 mm 1 mps 748 mmHg 87%
    06:00 +14°C° 0 mm 1 mps 748 mmHg 86%
    07:00 +14°C° 0 mm 1 mps 749 mmHg 86%
    08:00 +16°C° 0 mm 1 mps 749 mmHg 79%
    09:00 +18°C° 0 mm 1 mps 749 mmHg 72%
    10:00 +19°C° 0 mm 2 mps 749 mmHg 65%
    11:00 +20°C° 0 mm 2 mps 749 mmHg 62%
    12:00 +21°C° 0 mm 2 mps 749 mmHg 58%
    13:00 +23°C° 0 mm 2 mps 749 mmHg 55%
    14:00 +23°C° 0.1 mm 2 mps 749 mmHg 56%
    15:00 +23°C° 0.1 mm 2 mps 748 mmHg 58%
    16:00 +23°C° 0.1 mm 2 mps 748 mmHg 59%
    17:00 +20°C° 0.1 mm 2 mps 749 mmHg 64%
    18:00 +19°C° 0.1 mm 1 mps 749 mmHg 70%
    19:00 +18°C° 0.1 mm 1 mps 749 mmHg 76%
    20:00 +16°C° 0.1 mm 1 mps 749 mmHg 78%
    21:00 +16°C° 0.1 mm 1 mps 749 mmHg 80%
    22:00 +15°C° 0.1 mm 1 mps 749 mmHg 82%
    23:00 +15°C° 0 mm 1 mps 750 mmHg 82%
    Show more